| time (UTC) | temp F | wind direction | speed MPH | gust MPH | rain 1hr in | rain 24hr in | rain mn in | humidity % | barometer mb |
| 20260506141003 | 48 | 92 | 3.0 | 7.0 | 0.00 | 0.04 | 0.00 | 37 | 1012.9 |
| 20260506140803 | 48 | 111 | 3.0 | 6.0 | 0.00 | 0.04 | 0.00 | 37 | 1012.9 |
| 20260506140603 | 48 | 108 | 3.0 | 6.0 | 0.00 | 0.04 | 0.00 | 38 | 1012.9 |
| 20260506140403 | 48 | 97 | 3.0 | 6.0 | 0.00 | 0.04 | 0.00 | 37 | 1012.7 |
| 20260506140203 | 48 | 96 | 3.0 | 6.0 | 0.00 | 0.04 | 0.00 | 38 | 1012.7 |
| 20260506140003 | 48 | 88 | 3.0 | 7.0 | 0.00 | 0.04 | 0.00 | 36 | 1012.7 |
| 20260506135803 | 48 | 87 | 3.0 | 7.0 | 0.00 | 0.04 | 0.00 | 39 | 1012.7 |
| 20260506135603 | 48 | 88 | 3.0 | 7.0 | 0.00 | 0.04 | 0.00 | 41 | 1012.8 |
| 20260506135404 | 48 | 103 | 3.0 | 7.0 | 0.00 | 0.04 | 0.00 | 42 | 1012.7 |
| 20260506135203 | 48 | 110 | 3.0 | 7.0 | 0.00 | 0.04 | 0.00 | 40 | 1012.7 |
| 20260506135003 | 48 | 109 | 3.0 | 7.0 | 0.00 | 0.04 | 0.00 | 40 | 1012.7 |
| 20260506134824 | 48 | 113 | 3.0 | 7.0 | 0.00 | 0.04 | 0.00 | 40 | 1012.7 |
| 20260506134603 | 48 | 110 | 3.0 | 8.0 | 0.00 | 0.04 | 0.00 | 37 | 1012.5 |
| 20260506134403 | 48 | 100 | 3.0 | 8.0 | 0.00 | 0.04 | 0.00 | 38 | 1012.5 |
| 20260506134203 | 48 | 94 | 3.0 | 8.0 | 0.00 | 0.04 | 0.00 | 38 | 1012.5 |
| 20260506134003 | 48 | 99 | 3.0 | 8.0 | 0.00 | 0.04 | 0.00 | 39 | 1012.4 |
| 20260506133803 | 47 | 116 | 3.0 | 8.0 | 0.00 | 0.04 | 0.00 | 38 | 1012.4 |
| 20260506133603 | 47 | 117 | 3.0 | 7.0 | 0.00 | 0.04 | 0.00 | 40 | 1012.4 |
| 20260506133424 | 47 | 119 | 3.0 | 8.0 | 0.00 | 0.04 | 0.00 | 39 | 1012.3 |
| 20260506133203 | 47 | 119 | 3.0 | 8.0 | 0.00 | 0.04 | 0.00 | 41 | 1012.4 |
| 20260506133003 | 47 | 110 | 3.0 | 8.0 | 0.00 | 0.04 | 0.00 | 41 | 1012.3 |
| 20260506132824 | 47 | 95 | 3.0 | 8.0 | 0.00 | 0.04 | 0.00 | 42 | 1012.3 |
| 20260506132603 | 47 | 93 | 3.0 | 8.0 | 0.00 | 0.04 | 0.00 | 45 | 1012.4 |
| 20260506132403 | 47 | 94 | 3.0 | 7.0 | 0.00 | 0.04 | 0.00 | 45 | 1012.3 |
| 20260506132203 | 46 | 95 | 4.0 | 8.0 | 0.00 | 0.04 | 0.00 | 43 | 1012.4 |
| 20260506132003 | 46 | 97 | 4.0 | 8.0 | 0.00 | 0.04 | 0.00 | 43 | 1012.4 |
| 20260506131803 | 46 | 96 | 3.0 | 8.0 | 0.00 | 0.04 | 0.00 | 43 | 1012.3 |
| 20260506131603 | 46 | 92 | 4.0 | 8.0 | 0.00 | 0.04 | 0.00 | 42 | 1012.3 |
| 20260506131403 | 46 | 93 | 4.0 | 8.0 | 0.00 | 0.04 | 0.00 | 43 | 1012.2 |
| 20260506131224 | 46 | 94 | 3.0 | 8.0 | 0.00 | 0.04 | 0.00 | 45 | 1012.2 |
| 20260506131024 | 46 | 92 | 4.0 | 8.0 | 0.00 | 0.04 | 0.00 | 46 | 1012.2 |
| 20260506130803 | 46 | 92 | 4.0 | 8.0 | 0.00 | 0.04 | 0.00 | 46 | 1012.3 |
| 20260506130624 | 46 | 92 | 4.0 | 8.0 | 0.00 | 0.04 | 0.00 | 45 | 1012.3 |
| 20260506130403 | 46 | 91 | 5.0 | 8.0 | 0.00 | 0.04 | 0.00 | 44 | 1012.3 |
| 20260506130203 | 46 | 92 | 4.0 | 8.0 | 0.00 | 0.04 | 0.00 | 46 | 1012.4 |
| 20260506130024 | 46 | 95 | 4.0 | 8.0 | 0.00 | 0.04 | 0.00 | 46 | 1012.3 |
| 20260506125803 | 46 | 95 | 4.0 | 9.0 | 0.00 | 0.04 | 0.00 | 46 | 1012.3 |
| 20260506125603 | 46 | 98 | 4.0 | 9.0 | 0.00 | 0.04 | 0.00 | 46 | 1012.3 |
| 20260506125403 | 46 | 97 | 4.0 | 9.0 | 0.00 | 0.04 | 0.00 | 46 | 1012.3 |
| 20260506125203 | 45 | 96 | 4.0 | 9.0 | 0.00 | 0.04 | 0.00 | 46 | 1012.3 |
| 20260506125024 | 45 | 94 | 3.0 | 9.0 | 0.00 | 0.04 | 0.00 | 47 | 1012.3 |
| 20260506124803 | 45 | 93 | 3.0 | 6.0 | 0.00 | 0.04 | 0.00 | 47 | 1012.3 |
| 20260506124624 | 45 | 92 | 3.0 | 7.0 | 0.00 | 0.04 | 0.00 | 46 | 1012.3 |
| 20260506124424 | 45 | 94 | 3.0 | 8.0 | 0.00 | 0.04 | 0.00 | 46 | 1012.3 |
| 20260506124224 | 45 | 95 | 3.0 | 8.0 | 0.00 | 0.04 | 0.00 | 47 | 1012.4 |
| 20260506124003 | 45 | 101 | 3.0 | 8.0 | 0.00 | 0.04 | 0.00 | 48 | 1012.3 |
| 20260506123803 | 45 | 103 | 3.0 | 8.0 | 0.00 | 0.04 | 0.00 | 48 | 1012.3 |
| 20260506123624 | 45 | 103 | 3.0 | 8.0 | 0.00 | 0.04 | 0.00 | 47 | 1012.2 |
| 20260506123403 | 45 | 104 | 3.0 | 8.0 | 0.00 | 0.04 | 0.00 | 49 | 1012.2 |
| 20260506123203 | 45 | 99 | 3.0 | 8.0 | 0.00 | 0.04 | 0.00 | 48 | 1012.1 |
| 20260506123003 | 44 | 92 | 3.0 | 8.0 | 0.00 | 0.04 | 0.00 | 49 | 1012.2 |
| 20260506122803 | 44 | 90 | 3.0 | 8.0 | 0.00 | 0.04 | 0.00 | 49 | 1012.2 |
| 20260506122624 | 44 | 89 | 3.0 | 8.0 | 0.00 | 0.04 | 0.00 | 49 | 1012.2 |
| 20260506122403 | 44 | 91 | 4.0 | 8.0 | 0.00 | 0.04 | 0.00 | 50 | 1012.1 |
| 20260506122203 | 44 | 91 | 4.0 | 8.0 | 0.00 | 0.04 | 0.00 | 49 | 1012.1 |
| 20260506122003 | 44 | 96 | 4.0 | 8.0 | 0.00 | 0.04 | 0.00 | 50 | 1012.1 |
| 20260506121803 | 44 | 97 | 4.0 | 8.0 | 0.00 | 0.04 | 0.00 | 50 | 1011.9 |
| 20260506121603 | 44 | 98 | 4.0 | 8.0 | 0.00 | 0.04 | 0.00 | 50 | 1011.9 |
| 20260506121403 | 43 | 97 | 4.0 | 8.0 | 0.00 | 0.04 | 0.00 | 51 | 1011.9 |
| 20260506121203 | 43 | 98 | 4.0 | 6.0 | 0.00 | 0.04 | 0.00 | 51 | 1011.9 |
| 20260506121003 | 43 | 95 | 4.0 | 7.0 | 0.00 | 0.04 | 0.00 | 52 | 1011.8 |
| 20260506120803 | 43 | 94 | 4.0 | 7.0 | 0.00 | 0.04 | 0.00 | 51 | 1011.8 |
| 20260506120603 | 43 | 91 | 4.0 | 7.0 | 0.00 | 0.04 | 0.00 | 51 | 1011.8 |
| 20260506120403 | 43 | 92 | 4.0 | 7.0 | 0.00 | 0.04 | 0.00 | 52 | 1011.7 |
| 20260506120224 | 43 | 93 | 4.0 | 7.0 | 0.00 | 0.04 | 0.00 | 52 | 1011.7 |
| 20260506120003 | 42 | 94 | 4.0 | 7.0 | 0.00 | 0.04 | 0.00 | 52 | 1011.6 |
| 20260506115803 | 42 | 97 | 4.0 | 7.0 | 0.00 | 0.04 | 0.00 | 52 | 1011.6 |
| 20260506115603 | 42 | 100 | 3.0 | 7.0 | 0.00 | 0.04 | 0.00 | 52 | 1011.6 |
| 20260506115403 | 42 | 100 | 3.0 | 6.0 | 0.00 | 0.04 | 0.00 | 53 | 1011.6 |
| 20260506115203 | 42 | 99 | 3.0 | 6.0 | 0.00 | 0.04 | 0.00 | 53 | 1011.6 |
| 20260506115003 | 42 | 98 | 4.0 | 6.0 | 0.00 | 0.04 | 0.00 | 53 | 1011.5 |
| 20260506114803 | 42 | 97 | 4.0 | 6.0 | 0.00 | 0.04 | 0.00 | 54 | 1011.5 |
| 20260506114624 | 42 | 96 | 4.0 | 7.0 | 0.00 | 0.04 | 0.00 | 54 | 1011.4 |
| 20260506114403 | 42 | 95 | 4.0 | 7.0 | 0.00 | 0.04 | 0.00 | 54 | 1011.4 |
| 20260506114203 | 42 | 93 | 3.0 | 7.0 | 0.00 | 0.04 | 0.00 | 54 | 1011.4 |
| 20260506114003 | 42 | 91 | 3.0 | 7.0 | 0.00 | 0.04 | 0.00 | 54 | 1011.4 |
| 20260506113803 | 41 | 92 | 3.0 | 7.0 | 0.00 | 0.04 | 0.00 | 54 | 1011.2 |
| 20260506113603 | 41 | 91 | 3.0 | 6.0 | 0.00 | 0.04 | 0.00 | 54 | 1011.1 |
| 20260506113403 | 41 | 92 | 3.0 | 6.0 | 0.00 | 0.04 | 0.00 | 54 | 1011.1 |
| 20260506113203 | 41 | 93 | 3.0 | 5.0 | 0.00 | 0.04 | 0.00 | 54 | 1011.1 |
| 20260506113003 | 41 | 93 | 3.0 | 5.0 | 0.00 | 0.04 | 0.00 | 54 | 1011.1 |
| 20260506112803 | 41 | 94 | 3.0 | 5.0 | 0.00 | 0.04 | 0.00 | 54 | 1011.1 |
| 20260506112603 | 41 | 94 | 3.0 | 5.0 | 0.00 | 0.04 | 0.00 | 54 | 1011.1 |
| 20260506112403 | 41 | 94 | 2.0 | 5.0 | 0.00 | 0.04 | 0.00 | 55 | 1011.1 |
| 20260506112203 | 41 | 95 | 2.0 | 5.0 | 0.00 | 0.04 | 0.00 | 55 | 1011.0 |
| 20260506112003 | 41 | 98 | 2.0 | 4.0 | 0.00 | 0.04 | 0.00 | 55 | 1011.0 |
| 20260506111803 | 41 | 98 | 2.0 | 4.0 | 0.00 | 0.04 | 0.00 | 55 | 1010.9 |
| 20260506111603 | 41 | 99 | 2.0 | 4.0 | 0.00 | 0.04 | 0.00 | 55 | 1010.9 |
| 20260506111403 | 41 | 98 | 2.0 | 4.0 | 0.00 | 0.04 | 0.00 | 55 | 1011.0 |
| 20260506111203 | 41 | 97 | 2.0 | 4.0 | 0.00 | 0.04 | 0.00 | 55 | 1010.9 |
| 20260506111003 | 41 | 95 | 2.0 | 4.0 | 0.00 | 0.04 | 0.00 | 55 | 1010.9 |
| 20260506110803 | 40 | 94 | 2.0 | 4.0 | 0.00 | 0.04 | 0.00 | 55 | 1010.8 |
| 20260506110603 | 40 | 92 | 2.0 | 4.0 | 0.00 | 0.04 | 0.00 | 55 | 1010.7 |
| 20260506110403 | 40 | 92 | 1.0 | 4.0 | 0.00 | 0.04 | 0.00 | 55 | 1010.8 |
| 20260506110224 | 40 | 90 | 1.0 | 4.0 | 0.00 | 0.04 | 0.00 | 55 | 1010.9 |
| 20260506110004 | 40 | 94 | 1.0 | 4.0 | 0.00 | 0.04 | 0.00 | 55 | 1010.9 |
| 20260506105803 | 40 | 93 | 2.0 | 4.0 | 0.00 | 0.04 | 0.00 | 57 | 1011.0 |
| 20260506105603 | 41 | 95 | 2.0 | 5.0 | 0.00 | 0.04 | 0.00 | 56 | 1010.9 |
| 20260506105403 | 41 | 96 | 2.0 | 5.0 | 0.00 | 0.04 | 0.00 | 56 | 1010.9 |
| 20260506105203 | 41 | 94 | 2.0 | 5.0 | 0.00 | 0.04 | 0.00 | 55 | 1010.9 |
| 20260506105003 | 41 | 90 | 2.0 | 5.0 | 0.00 | 0.04 | 0.00 | 55 | 1010.8 |
| 20260506104803 | 41 | 91 | 2.0 | 5.0 | 0.00 | 0.04 | 0.00 | 55 | 1010.8 |
| 20260506104624 | 41 | 92 | 2.0 | 5.0 | 0.00 | 0.04 | 0.00 | 55 | 1010.7 |
| 20260506104403 | 41 | 92 | 3.0 | 5.0 | 0.00 | 0.04 | 0.00 | 55 | 1010.6 |
| 20260506104203 | 41 | 96 | 3.0 | 6.0 | 0.00 | 0.04 | 0.00 | 55 | 1010.6 |
| 20260506104003 | 41 | 96 | 3.0 | 6.0 | 0.00 | 0.04 | 0.00 | 55 | 1010.7 |
| 20260506103824 | 41 | 99 | 3.0 | 6.0 | 0.00 | 0.04 | 0.00 | 54 | 1010.7 |
| 20260506103603 | 41 | 101 | 3.0 | 6.0 | 0.00 | 0.04 | 0.00 | 54 | 1010.6 |
| 20260506103424 | 41 | 101 | 3.0 | 6.0 | 0.00 | 0.04 | 0.00 | 54 | 1010.6 |
| 20260506103203 | 41 | 98 | 2.0 | 5.0 | 0.00 | 0.04 | 0.00 | 55 | 1010.6 |
| 20260506103003 | 41 | 99 | 2.0 | 5.0 | 0.00 | 0.04 | 0.00 | 55 | 1010.5 |
| 20260506102803 | 41 | 98 | 2.0 | 5.0 | 0.00 | 0.04 | 0.00 | 55 | 1010.5 |
| 20260506102603 | 41 | 96 | 2.0 | 5.0 | 0.00 | 0.04 | 0.00 | 55 | 1010.7 |
| 20260506102403 | 41 | 95 | 2.0 | 5.0 | 0.00 | 0.04 | 0.00 | 55 | 1010.6 |
| 20260506102224 | 41 | 95 | 2.0 | 5.0 | 0.00 | 0.04 | 0.00 | 55 | 1010.5 |
| 20260506102003 | 41 | 95 | 2.0 | 5.0 | 0.00 | 0.04 | 0.00 | 55 | 1010.5 |
| 20260506101803 | 41 | 92 | 3.0 | 5.0 | 0.00 | 0.04 | 0.00 | 55 | 1010.5 |
| 20260506101624 | 41 | 92 | 3.0 | 5.0 | 0.00 | 0.04 | 0.00 | 56 | 1010.5 |
| 20260506101424 | 41 | 93 | 3.0 | 5.0 | 0.00 | 0.04 | 0.00 | 56 | 1010.5 |
| 20260506101203 | 41 | 94 | 3.0 | 5.0 | 0.00 | 0.04 | 0.00 | 57 | 1010.5 |
| 20260506101003 | 41 | 94 | 3.0 | 5.0 | 0.00 | 0.04 | 0.00 | 55 | 1010.5 |
| 20260506100803 | 41 | 95 | 3.0 | 5.0 | 0.00 | 0.04 | 0.00 | 56 | 1010.5 |
| 20260506100603 | 41 | 94 | 3.0 | 5.0 | 0.00 | 0.04 | 0.00 | 56 | 1010.4 |
| 20260506100403 | 41 | 97 | 3.0 | 5.0 | 0.00 | 0.04 | 0.00 | 57 | 1010.4 |
| 20260506100203 | 40 | 98 | 3.0 | 5.0 | 0.00 | 0.04 | 0.00 | 57 | 1010.3 |
| 20260506100003 | 40 | 98 | 2.0 | 5.0 | 0.00 | 0.04 | 0.00 | 58 | 1010.3 |
| 20260506095803 | 40 | 99 | 2.0 | 5.0 | 0.00 | 0.04 | 0.00 | 59 | 1010.3 |
| 20260506095603 | 40 | 101 | 1.0 | 5.0 | 0.00 | 0.04 | 0.00 | 60 | 1010.3 |
| 20260506095403 | 40 | 92 | 1.0 | 4.0 | 0.00 | 0.04 | 0.00 | 61 | 1010.3 |
| 20260506095203 | 39 | 92 | 0.0 | 4.0 | 0.00 | 0.04 | 0.00 | 61 | 1010.4 |
| 20260506095024 | 39 | 78 | 0.0 | 3.0 | 0.00 | 0.04 | 0.00 | 61 | 1010.3 |
| 20260506094803 | 39 | 0 | 0.0 | 0.0 | 0.00 | 0.04 | 0.00 | 62 | 1010.4 |
| 20260506094603 | 39 | 0 | 0.0 | 0.0 | 0.00 | 0.04 | 0.00 | 62 | 1010.4 |
| 20260506094403 | 39 | 0 | 0.0 | 0.0 | 0.00 | 0.04 | 0.00 | 62 | 1010.3 |
| 20260506094203 | 39 | 0 | 0.0 | 0.0 | 0.00 | 0.04 | 0.00 | 62 | 1010.5 |
| 20260506094003 | 39 | 0 | 0.0 | 0.0 | 0.00 | 0.04 | 0.00 | 62 | 1010.4 |
| 20260506093803 | 39 | 0 | 0.0 | 0.0 | 0.00 | 0.04 | 0.00 | 62 | 1010.5 |
| 20260506093624 | 40 | 0 | 0.0 | 0.0 | 0.00 | 0.04 | 0.00 | 62 | 1010.5 |
| 20260506093424 | 40 | 0 | 0.0 | 0.0 | 0.00 | 0.04 | 0.00 | 62 | 1010.4 |
| 20260506093203 | 40 | 0 | 0.0 | 0.0 | 0.00 | 0.04 | 0.00 | 61 | 1010.4 |
| 20260506093003 | 40 | 0 | 0.0 | 0.0 | 0.00 | 0.04 | 0.00 | 60 | 1010.4 |
| 20260506092803 | 40 | 0 | 0.0 | 0.0 | 0.00 | 0.04 | 0.00 | 61 | 1010.4 |
| 20260506092624 | 40 | 0 | 0.0 | 0.0 | 0.00 | 0.04 | 0.00 | 60 | 1010.3 |
| 20260506092424 | 40 | 0 | 0.0 | 0.0 | 0.00 | 0.04 | 0.00 | 60 | 1010.3 |
| 20260506092203 | 40 | 0 | 0.0 | 0.0 | 0.00 | 0.04 | 0.00 | 60 | 1010.4 |
| 20260506092003 | 41 | 0 | 0.0 | 0.0 | 0.00 | 0.04 | 0.00 | 60 | 1010.4 |
| 20260506091803 | 41 | 85 | 0.0 | 1.0 | 0.00 | 0.04 | 0.00 | 59 | 1010.4 |
| 20260506091603 | 41 | 85 | 0.0 | 2.0 | 0.00 | 0.04 | 0.00 | 58 | 1010.3 |
| 20260506091403 | 41 | 85 | 0.0 | 2.0 | 0.00 | 0.04 | 0.00 | 58 | 1010.3 |
| 20260506091203 | 42 | 85 | 0.0 | 2.0 | 0.00 | 0.04 | 0.00 | 57 | 1010.2 |
| 20260506091003 | 42 | 85 | 0.0 | 3.0 | 0.00 | 0.04 | 0.00 | 57 | 1010.2 |
| 20260506090803 | 42 | 85 | 0.0 | 3.0 | 0.00 | 0.04 | 0.00 | 57 | 1010.1 |
| 20260506090603 | 42 | 86 | 1.0 | 3.0 | 0.00 | 0.04 | 0.00 | 56 | 1010.1 |
| 20260506090424 | 42 | 85 | 1.0 | 3.0 | 0.00 | 0.04 | 0.00 | 56 | 1010.1 |
| 20260506090203 | 43 | 84 | 1.0 | 3.0 | 0.00 | 0.04 | 0.00 | 55 | 1010.0 |
| 20260506090003 | 43 | 82 | 1.0 | 3.0 | 0.00 | 0.04 | 0.00 | 54 | 1010.0 |
| 20260506085824 | 43 | 81 | 1.0 | 3.0 | 0.00 | 0.04 | 0.00 | 53 | 1009.9 |
| 20260506085603 | 43 | 79 | 1.0 | 3.0 | 0.00 | 0.04 | 0.00 | 53 | 1009.9 |
| 20260506085403 | 43 | 77 | 1.0 | 3.0 | 0.00 | 0.04 | 0.00 | 53 | 1009.9 |
| 20260506085203 | 43 | 75 | 1.0 | 3.0 | 0.00 | 0.04 | 0.00 | 53 | 1009.9 |
| 20260506085003 | 44 | 76 | 1.0 | 3.0 | 0.00 | 0.04 | 0.00 | 52 | 1009.8 |
| 20260506084803 | 44 | 86 | 1.0 | 5.0 | 0.00 | 0.04 | 0.00 | 52 | 1009.7 |
| 20260506084603 | 44 | 92 | 1.0 | 5.0 | 0.00 | 0.04 | 0.00 | 51 | 1009.7 |
| 20260506084403 | 44 | 94 | 1.0 | 5.0 | 0.00 | 0.04 | 0.00 | 51 | 1009.8 |
| 20260506084203 | 44 | 100 | 1.0 | 5.0 | 0.00 | 0.04 | 0.00 | 51 | 1009.8 |
| 20260506084003 | 44 | 103 | 2.0 | 5.0 | 0.00 | 0.04 | 0.00 | 51 | 1009.8 |
| 20260506083803 | 44 | 104 | 2.0 | 4.0 | 0.00 | 0.04 | 0.00 | 51 | 1009.7 |
| 20260506083603 | 44 | 102 | 2.0 | 4.0 | 0.00 | 0.04 | 0.00 | 51 | 1009.6 |
| 20260506083403 | 44 | 103 | 2.0 | 4.0 | 0.00 | 0.04 | 0.00 | 51 | 1009.7 |
| 20260506083224 | 44 | 104 | 2.0 | 4.0 | 0.00 | 0.04 | 0.00 | 51 | 1009.6 |
| 20260506083004 | 44 | 99 | 2.0 | 4.0 | 0.00 | 0.04 | 0.00 | 51 | 1009.6 |
| 20260506082803 | 44 | 95 | 2.0 | 6.0 | 0.00 | 0.04 | 0.00 | 51 | 1009.6 |
| 20260506082603 | 44 | 95 | 2.0 | 6.0 | 0.00 | 0.04 | 0.00 | 50 | 1009.6 |
| 20260506082403 | 44 | 95 | 2.0 | 6.0 | 0.00 | 0.04 | 0.00 | 51 | 1009.7 |
| 20260506082203 | 45 | 96 | 3.0 | 6.0 | 0.00 | 0.04 | 0.00 | 50 | 1009.7 |
| 20260506082003 | 45 | 97 | 3.0 | 6.0 | 0.00 | 0.04 | 0.00 | 50 | 1009.6 |
| 20260506081803 | 45 | 97 | 3.0 | 5.0 | 0.00 | 0.04 | 0.00 | 50 | 1009.6 |
| 20260506081603 | 45 | 100 | 3.0 | 5.0 | 0.00 | 0.04 | 0.00 | 51 | 1009.6 |
| 20260506081403 | 45 | 97 | 3.0 | 5.0 | 0.00 | 0.04 | 0.00 | 50 | 1009.7 |
| 20260506081203 | 45 | 93 | 3.0 | 5.0 | 0.00 | 0.04 | 0.00 | 51 | 1009.7 |
| 20260506081003 | 45 | 94 | 3.0 | 5.0 | 0.00 | 0.04 | 0.00 | 51 | 1009.6 |
| 20260506080804 | 45 | 97 | 3.0 | 5.0 | 0.00 | 0.04 | 0.00 | 50 | 1009.5 |
| 20260506080603 | 45 | 92 | 3.0 | 6.0 | 0.00 | 0.04 | 0.00 | 50 | 1009.4 |
| 20260506080403 | 45 | 93 | 3.0 | 6.0 | 0.00 | 0.04 | 0.00 | 51 | 1009.5 |
| 20260506080203 | 45 | 95 | 3.0 | 6.0 | 0.00 | 0.04 | 0.00 | 50 | 1009.6 |
| 20260506073403 | 46 | 98 | 2.0 | 7.0 | 0.00 | 0.04 | 0.00 | 50 | 1009.7 |
| 20260506073203 | 46 | 100 | 2.0 | 5.0 | 0.00 | 0.04 | 0.00 | 49 | 1009.8 |
| 20260506073003 | 46 | 101 | 2.0 | 5.0 | 0.00 | 0.04 | 0.00 | 49 | 1009.8 |
| 20260506072803 | 46 | 98 | 2.0 | 7.0 | 0.00 | 0.04 | 0.00 | 50 | 1009.8 |
| 20260506072603 | 46 | 100 | 3.0 | 7.0 | 0.00 | 0.04 | 0.00 | 50 | 1009.7 |
| 20260506072403 | 46 | 97 | 3.0 | 7.0 | 0.00 | 0.04 | 0.00 | 49 | 1009.6 |
| 20260506072203 | 46 | 94 | 3.0 | 7.0 | 0.00 | 0.04 | 0.00 | 49 | 1009.6 |
| 20260506072003 | 46 | 96 | 4.0 | 7.0 | 0.00 | 0.04 | 0.00 | 49 | 1009.5 |
| 20260506071803 | 46 | 98 | 4.0 | 7.0 | 0.00 | 0.04 | 0.00 | 50 | 1009.6 |
| 20260506071624 | 46 | 96 | 3.0 | 7.0 | 0.00 | 0.04 | 0.00 | 49 | 1009.7 |
| 20260506071403 | 46 | 100 | 3.0 | 7.0 | 0.00 | 0.04 | 0.00 | 50 | 1009.7 |
| 20260506071203 | 46 | 102 | 3.0 | 7.0 | 0.00 | 0.04 | 0.00 | 50 | 1009.8 |
| 20260506071003 | 46 | 100 | 3.0 | 7.0 | 0.00 | 0.04 | 0.00 | 50 | 1009.8 |
| 20260506070803 | 46 | 99 | 4.0 | 8.0 | 0.00 | 0.04 | 0.00 | 51 | 1009.9 |
| 20260506070603 | 46 | 102 | 4.0 | 8.0 | 0.00 | 0.04 | 0.00 | 51 | 1009.8 |
| 20260506070424 | 46 | 101 | 4.0 | 8.0 | 0.00 | 0.04 | 0.00 | 51 | 1009.8 |
| 20260506070203 | 46 | 98 | 4.0 | 8.0 | 0.00 | 0.04 | 0.00 | 51 | 1009.8 |
| 20260506062424 | 46 | 101 | 1.0 | 3.0 | 0.00 | 0.04 | 0.00 | 54 | 1009.7 |
| 20260506062203 | 46 | 101 | 1.0 | 3.0 | 0.00 | 0.04 | 0.00 | 54 | 1009.8 |
| 20260506062003 | 46 | 101 | 0.0 | 3.0 | 0.00 | 0.04 | 0.00 | 55 | 1009.8 |
| 20260506061824 | 46 | 101 | 1.0 | 3.0 | 0.00 | 0.04 | 0.00 | 56 | 1009.7 |
| 20260506061603 | 46 | 101 | 1.0 | 3.0 | 0.00 | 0.04 | 0.00 | 56 | 1009.8 |
| 20260506061424 | 46 | 100 | 1.0 | 3.0 | 0.00 | 0.04 | 0.00 | 55 | 1009.8 |
| 20260506061203 | 46 | 100 | 1.0 | 3.0 | 0.00 | 0.04 | 0.00 | 55 | 1009.8 |
| 20260506061024 | 46 | 100 | 1.0 | 3.0 | 0.00 | 0.04 | 0.00 | 55 | 1009.8 |
| 20260506060824 | 46 | 100 | 1.0 | 3.0 | 0.00 | 0.04 | 0.00 | 55 | 1009.9 |
| 20260506060603 | 46 | 100 | 1.0 | 3.0 | 0.00 | 0.04 | 0.00 | 55 | 1009.9 |
| 20260506060403 | 46 | 99 | 1.0 | 3.0 | 0.00 | 0.04 | 0.00 | 56 | 1009.9 |
| 20260506060203 | 46 | 99 | 1.0 | 3.0 | 0.00 | 0.04 | 0.00 | 56 | 1009.9 |
| 20260506051403 | 45 | 0 | 0.0 | 0.0 | 0.00 | 0.04 | 0.00 | 62 | 1010.0 |
| 20260506051203 | 45 | 0 | 0.0 | 0.0 | 0.00 | 0.04 | 0.00 | 63 | 1010.0 |
| 20260506051003 | 45 | 0 | 0.0 | 0.0 | 0.00 | 0.04 | 0.00 | 63 | 1009.9 |
| 20260506050803 | 45 | 0 | 0.0 | 0.0 | 0.00 | 0.04 | 0.00 | 63 | 1010.0 |
| 20260506050603 | 46 | 0 | 0.0 | 0.0 | 0.00 | 0.04 | 0.00 | 63 | 1009.9 |
| 20260506050403 | 46 | 0 | 0.0 | 0.0 | 0.00 | 0.04 | 0.00 | 63 | 1009.9 |
| 20260506050203 | 46 | 0 | 0.0 | 0.0 | 0.00 | 0.04 | 0.00 | 63 | 1009.9 |
| 20260506045024 | 46 | 0 | 0.0 | 0.0 | 0.00 | 0.04 | 0.00 | 62 | 1009.9 |
| 20260506044803 | 46 | 0 | 0.0 | 0.0 | 0.00 | 0.04 | 0.00 | 62 | 1009.7 |
| 20260506044624 | 46 | 0 | 0.0 | 0.0 | 0.00 | 0.04 | 0.00 | 62 | 1009.7 |
| 20260506044424 | 46 | 0 | 0.0 | 0.0 | 0.00 | 0.04 | 0.00 | 62 | 1009.7 |
| 20260506044203 | 46 | 0 | 0.0 | 0.0 | 0.00 | 0.04 | 0.00 | 64 | 1009.6 |
| 20260506044003 | 46 | 0 | 0.0 | 0.0 | 0.00 | 0.04 | 0.00 | 64 | 1009.4 |
| 20260506043824 | 46 | 0 | 0.0 | 0.0 | 0.00 | 0.04 | 0.00 | 63 | 1009.4 |
| 20260506043603 | 46 | 0 | 0.0 | 0.0 | 0.00 | 0.04 | 0.00 | 63 | 1009.4 |
| 20260506043403 | 46 | 0 | 0.0 | 0.0 | 0.00 | 0.04 | 0.00 | 63 | 1009.5 |
| 20260506043203 | 46 | 0 | 0.0 | 0.0 | 0.00 | 0.04 | 0.00 | 62 | 1009.5 |
| 20260506043003 | 46 | 0 | 0.0 | 0.0 | 0.00 | 0.04 | 0.00 | 61 | 1009.4 |
| 20260506042824 | 46 | 0 | 0.0 | 0.0 | 0.00 | 0.04 | 0.00 | 60 | 1009.4 |
| 20260506042603 | 46 | 0 | 0.0 | 0.0 | 0.00 | 0.04 | 0.00 | 60 | 1009.3 |
| 20260506042403 | 46 | 0 | 0.0 | 0.0 | 0.00 | 0.04 | 0.00 | 60 | 1009.3 |
| 20260506042203 | 46 | 0 | 0.0 | 0.0 | 0.00 | 0.04 | 0.00 | 60 | 1009.3 |
| 20260506042003 | 46 | 0 | 0.0 | 0.0 | 0.00 | 0.04 | 0.00 | 61 | 1009.3 |
| 20260506041803 | 46 | 0 | 0.0 | 0.0 | 0.00 | 0.04 | 0.00 | 62 | 1009.3 |
| 20260506041603 | 46 | 0 | 0.0 | 0.0 | 0.00 | 0.04 | 0.00 | 63 | 1009.3 |
| 20260506041424 | 46 | 0 | 0.0 | 0.0 | 0.00 | 0.04 | 0.00 | 62 | 1009.3 |
| 20260506041203 | 46 | 0 | 0.0 | 0.0 | 0.00 | 0.04 | 0.00 | 63 | 1009.3 |
| 20260506041024 | 46 | 0 | 0.0 | 0.0 | 0.00 | 0.04 | 0.00 | 63 | 1009.4 |
| 20260506040803 | 46 | 0 | 0.0 | 0.0 | 0.00 | 0.04 | 0.00 | 62 | 1009.5 |
| 20260506040603 | 46 | 0 | 0.0 | 0.0 | 0.00 | 0.04 | 0.00 | 61 | 1009.6 |
| 20260506040403 | 46 | 0 | 0.0 | 0.0 | 0.00 | 0.04 | 0.00 | 61 | 1009.6 |
| 20260506040203 | 46 | 0 | 0.0 | 0.0 | 0.00 | 0.04 | 0.00 | 62 | 1009.6 |
| 20260506040004 | 46 | 0 | 0.0 | 0.0 | 0.00 | 0.04 | 0.00 | 63 | 1009.7 |
| 20260506035803 | 46 | 0 | 0.0 | 0.0 | 0.00 | 0.04 | 0.04 | 64 | 1009.6 |
| 20260506035603 | 46 | 0 | 0.0 | 0.0 | 0.00 | 0.04 | 0.04 | 64 | 1009.6 |
| 20260506035424 | 46 | 0 | 0.0 | 0.0 | 0.00 | 0.04 | 0.04 | 64 | 1009.7 |
| 20260506035203 | 46 | 0 | 0.0 | 0.0 | 0.00 | 0.04 | 0.04 | 64 | 1009.6 |
| 20260506035003 | 46 | 0 | 0.0 | 0.0 | 0.00 | 0.04 | 0.04 | 63 | 1009.7 |
| 20260506034803 | 46 | 0 | 0.0 | 0.0 | 0.00 | 0.04 | 0.04 | 63 | 1009.7 |
| 20260506034624 | 46 | 0 | 0.0 | 0.0 | 0.00 | 0.04 | 0.04 | 62 | 1009.7 |
| 20260506034424 | 46 | 0 | 0.0 | 0.0 | 0.00 | 0.04 | 0.04 | 62 | 1009.7 |
| 20260506034224 | 46 | 0 | 0.0 | 0.0 | 0.00 | 0.04 | 0.04 | 63 | 1009.6 |
| 20260506034024 | 46 | 0 | 0.0 | 0.0 | 0.00 | 0.04 | 0.04 | 63 | 1009.6 |
| 20260506033803 | 46 | 0 | 0.0 | 0.0 | 0.00 | 0.04 | 0.04 | 63 | 1009.5 |
| 20260506033603 | 46 | 0 | 0.0 | 0.0 | 0.00 | 0.04 | 0.04 | 62 | 1009.5 |
| 20260506033403 | 46 | 0 | 0.0 | 0.0 | 0.00 | 0.04 | 0.04 | 61 | 1009.5 |
| 20260506033203 | 46 | 0 | 0.0 | 0.0 | 0.00 | 0.04 | 0.04 | 60 | 1009.5 |
| 20260506033003 | 47 | 0 | 0.0 | 0.0 | 0.00 | 0.04 | 0.04 | 61 | 1009.5 |
| 20260506032803 | 47 | 0 | 0.0 | 0.0 | 0.00 | 0.04 | 0.04 | 62 | 1009.5 |
| 20260506032603 | 47 | 0 | 0.0 | 0.0 | 0.00 | 0.04 | 0.04 | 62 | 1009.4 |
| 20260506032403 | 47 | 0 | 0.0 | 0.0 | 0.00 | 0.04 | 0.04 | 61 | 1009.4 |
| 20260506032203 | 47 | 0 | 0.0 | 0.0 | 0.00 | 0.04 | 0.04 | 62 | 1009.4 |
| 20260506032003 | 47 | 0 | 0.0 | 0.0 | 0.00 | 0.04 | 0.04 | 63 | 1009.4 |
| 20260506031803 | 47 | 0 | 0.0 | 0.0 | 0.00 | 0.04 | 0.04 | 63 | 1009.4 |
| 20260506031603 | 47 | 0 | 0.0 | 0.0 | 0.00 | 0.04 | 0.04 | 62 | 1009.4 |
| 20260506031424 | 47 | 0 | 0.0 | 0.0 | 0.00 | 0.04 | 0.04 | 62 | 1009.5 |
| 20260506031203 | 47 | 0 | 0.0 | 0.0 | 0.00 | 0.04 | 0.04 | 62 | 1009.4 |
| 20260506031003 | 47 | 0 | 0.0 | 0.0 | 0.00 | 0.05 | 0.04 | 62 | 1009.4 |
| 20260506030803 | 47 | 0 | 0.0 | 0.0 | 0.00 | 0.05 | 0.04 | 62 | 1009.4 |
| 20260506030603 | 47 | 0 | 0.0 | 0.0 | 0.00 | 0.05 | 0.04 | 62 | 1009.4 |
| 20260506030403 | 48 | 0 | 0.0 | 0.0 | 0.00 | 0.05 | 0.04 | 62 | 1009.4 |
| 20260506030203 | 48 | 0 | 0.0 | 0.0 | 0.00 | 0.05 | 0.04 | 63 | 1009.3 |
| 20260506030003 | 48 | 0 | 0.0 | 0.0 | 0.00 | 0.05 | 0.04 | 63 | 1009.2 |
| 20260506025803 | 48 | 0 | 0.0 | 0.0 | 0.00 | 0.05 | 0.04 | 63 | 1009.2 |
| 20260506025603 | 48 | 0 | 0.0 | 0.0 | 0.00 | 0.05 | 0.04 | 63 | 1009.2 |
| 20260506025403 | 48 | 0 | 0.0 | 0.0 | 0.00 | 0.05 | 0.04 | 63 | 1009.2 |
| 20260506025203 | 48 | 0 | 0.0 | 0.0 | 0.00 | 0.05 | 0.04 | 63 | 1009.3 |
| 20260506025024 | 47 | 0 | 0.0 | 0.0 | 0.00 | 0.05 | 0.04 | 63 | 1009.3 |
| 20260506024803 | 47 | 0 | 0.0 | 0.0 | 0.00 | 0.05 | 0.04 | 62 | 1009.3 |
| 20260506024603 | 47 | 0 | 0.0 | 0.0 | 0.00 | 0.05 | 0.04 | 61 | 1009.3 |
| 20260506024403 | 47 | 0 | 0.0 | 0.0 | 0.00 | 0.06 | 0.04 | 60 | 1009.3 |
| 20260506024203 | 47 | 0 | 0.0 | 0.0 | 0.00 | 0.06 | 0.04 | 60 | 1009.3 |
| 20260506024003 | 47 | 0 | 0.0 | 0.0 | 0.00 | 0.07 | 0.04 | 60 | 1009.2 |
| 20260506023824 | 47 | 0 | 0.0 | 0.0 | 0.00 | 0.08 | 0.04 | 61 | 1009.3 |
| 20260506023603 | 47 | 0 | 0.0 | 0.0 | 0.00 | 0.09 | 0.04 | 61 | 1009.2 |
| 20260506023403 | 48 | 0 | 0.0 | 0.0 | 0.00 | 0.10 | 0.04 | 60 | 1009.3 |
| 20260506023203 | 48 | 0 | 0.0 | 0.0 | 0.00 | 0.11 | 0.04 | 59 | 1009.3 |
| 20260506023003 | 48 | 0 | 0.0 | 0.0 | 0.00 | 0.12 | 0.04 | 60 | 1009.2 |
| 20260506022803 | 48 | 0 | 0.0 | 0.0 | 0.00 | 0.13 | 0.04 | 60 | 1009.1 |
| 20260506022603 | 48 | 0 | 0.0 | 0.0 | 0.00 | 0.14 | 0.04 | 60 | 1009.2 |
| 20260506022403 | 48 | 0 | 0.0 | 0.0 | 0.00 | 0.15 | 0.04 | 60 | 1009.2 |
| 20260506022203 | 48 | 0 | 0.0 | 0.0 | 0.00 | 0.16 | 0.04 | 60 | 1009.2 |
| 20260506022003 | 48 | 0 | 0.0 | 0.0 | 0.00 | 0.17 | 0.04 | 60 | 1009.2 |
| 20260506021803 | 48 | 0 | 0.0 | 0.0 | 0.00 | 0.19 | 0.04 | 60 | 1009.3 |
| 20260506021603 | 48 | 0 | 0.0 | 0.0 | 0.00 | 0.19 | 0.04 | 60 | 1009.2 |
| 20260506021403 | 48 | 0 | 0.0 | 0.0 | 0.00 | 0.21 | 0.04 | 60 | 1009.2 |
| 20260506021203 | 49 | 0 | 0.0 | 0.0 | 0.00 | 0.21 | 0.04 | 59 | 1009.1 |
| 20260506021003 | 49 | 0 | 0.0 | 0.0 | 0.00 | 0.23 | 0.04 | 59 | 1009.1 |
| 20260506020803 | 49 | 0 | 0.0 | 0.0 | 0.00 | 0.23 | 0.04 | 59 | 1009.1 |
| 20260506020603 | 48 | 0 | 0.0 | 0.0 | 0.00 | 0.23 | 0.04 | 57 | 1009.1 |
| 20260506020403 | 48 | 0 | 0.0 | 0.0 | 0.00 | 0.23 | 0.04 | 57 | 1009.1 |
| 20260506020203 | 49 | 0 | 0.0 | 0.0 | 0.00 | 0.23 | 0.04 | 58 | 1009.1 |
| 20260506020004 | 48 | 0 | 0.0 | 0.0 | 0.00 | 0.23 | 0.04 | 59 | 1009.0 |
| 20260506015803 | 48 | 0 | 0.0 | 0.0 | 0.00 | 0.23 | 0.04 | 59 | 1009.0 |
| 20260506015603 | 48 | 0 | 0.0 | 0.0 | 0.00 | 0.24 | 0.04 | 59 | 1009.0 |
| 20260506015425 | 48 | 0 | 0.0 | 0.0 | 0.00 | 0.24 | 0.04 | 58 | 1009.0 |
| 20260506015203 | 48 | 0 | 0.0 | 0.0 | 0.00 | 0.24 | 0.04 | 58 | 1009.0 |
| 20260506015003 | 48 | 0 | 0.0 | 0.0 | 0.00 | 0.24 | 0.04 | 58 | 1009.0 |
| 20260506014803 | 48 | 0 | 0.0 | 0.0 | 0.00 | 0.24 | 0.04 | 58 | 1008.9 |
| 20260506014603 | 48 | 0 | 0.0 | 0.0 | 0.00 | 0.24 | 0.04 | 57 | 1008.9 |
| 20260506014424 | 48 | 0 | 0.0 | 0.0 | 0.00 | 0.24 | 0.04 | 56 | 1008.9 |
| 20260506014203 | 48 | 0 | 0.0 | 0.0 | 0.00 | 0.24 | 0.04 | 55 | 1008.9 |
| 20260506014003 | 48 | 0 | 0.0 | 0.0 | 0.00 | 0.24 | 0.04 | 56 | 1008.9 |
| 20260506013803 | 48 | 0 | 0.0 | 0.0 | 0.00 | 0.24 | 0.04 | 55 | 1008.9 |
| 20260506013609 | 48 | 0 | 0.0 | 0.0 | 0.00 | 0.24 | 0.04 | 54 | 1008.9 |
| 20260506013423 | 48 | 0 | 0.0 | 0.0 | 0.00 | 0.24 | 0.04 | 54 | 1008.7 |
| 20260506013203 | 49 | 0 | 0.0 | 0.0 | 0.00 | 0.24 | 0.04 | 54 | 1008.6 |
| 20260506013005 | 49 | 0 | 0.0 | 0.0 | 0.00 | 0.24 | 0.04 | 55 | 1008.6 |
| 20260506012804 | 49 | 0 | 0.0 | 0.0 | 0.00 | 0.24 | 0.04 | 57 | 1008.7 |
| 20260506012604 | 49 | 0 | 0.0 | 0.0 | 0.00 | 0.24 | 0.04 | 58 | 1008.7 |
| 20260506012403 | 49 | 0 | 0.0 | 0.0 | 0.00 | 0.24 | 0.04 | 58 | 1008.7 |
| 20260506012203 | 49 | 0 | 0.0 | 0.0 | 0.00 | 0.24 | 0.04 | 58 | 1008.6 |
| 20260506012003 | 49 | 0 | 0.0 | 0.0 | 0.00 | 0.24 | 0.04 | 58 | 1008.7 |
| 20260506011803 | 49 | 0 | 0.0 | 0.0 | 0.00 | 0.24 | 0.04 | 57 | 1008.7 |
| 20260506011624 | 49 | 0 | 0.0 | 0.0 | 0.00 | 0.24 | 0.04 | 56 | 1008.6 |
| 20260506011403 | 49 | 0 | 0.0 | 0.0 | 0.00 | 0.24 | 0.04 | 55 | 1008.6 |
| 20260506011203 | 49 | 0 | 0.0 | 0.0 | 0.00 | 0.24 | 0.04 | 55 | 1008.5 |
| 20260506011003 | 49 | 0 | 0.0 | 0.0 | 0.00 | 0.24 | 0.04 | 54 | 1008.6 |
| 20260506010803 | 49 | 0 | 0.0 | 0.0 | 0.00 | 0.24 | 0.04 | 55 | 1008.6 |
| 20260506010603 | 49 | 0 | 0.0 | 0.0 | 0.00 | 0.24 | 0.04 | 53 | 1008.5 |
| 20260506010403 | 49 | 0 | 0.0 | 0.0 | 0.00 | 0.24 | 0.04 | 52 | 1008.5 |
| 20260506010203 | 49 | 0 | 0.0 | 0.0 | 0.00 | 0.24 | 0.04 | 51 | 1008.5 |
| 20260506010003 | 49 | 0 | 0.0 | 0.0 | 0.00 | 0.24 | 0.04 | 53 | 1008.5 |
| 20260506005803 | 49 | 0 | 0.0 | 0.0 | 0.00 | 0.24 | 0.04 | 54 | 1008.5 |
| 20260506005603 | 50 | 0 | 0.0 | 0.0 | 0.00 | 0.24 | 0.04 | 56 | 1008.5 |
| 20260506005403 | 50 | 0 | 0.0 | 0.0 | 0.00 | 0.24 | 0.04 | 55 | 1008.5 |
| 20260506005203 | 50 | 0 | 0.0 | 0.0 | 0.00 | 0.24 | 0.04 | 55 | 1008.6 |
| 20260506005024 | 50 | 0 | 0.0 | 0.0 | 0.00 | 0.24 | 0.04 | 54 | 1008.6 |
| 20260506004803 | 50 | 0 | 0.0 | 0.0 | 0.00 | 0.24 | 0.04 | 50 | 1008.5 |
| 20260506004603 | 50 | 0 | 0.0 | 0.0 | 0.00 | 0.24 | 0.04 | 50 | 1008.4 |
| 20260506004403 | 50 | 0 | 0.0 | 0.0 | 0.00 | 0.24 | 0.04 | 51 | 1008.5 |
| 20260506004203 | 50 | 0 | 0.0 | 0.0 | 0.00 | 0.24 | 0.04 | 49 | 1008.5 |
| 20260506004003 | 50 | 0 | 0.0 | 0.0 | 0.00 | 0.24 | 0.04 | 50 | 1008.6 |
| 20260506003803 | 50 | 0 | 0.0 | 0.0 | 0.00 | 0.24 | 0.04 | 44 | 1008.4 |
| 20260506003603 | 50 | 0 | 0.0 | 0.0 | 0.00 | 0.24 | 0.04 | 43 | 1008.5 |
| 20260506003403 | 50 | 0 | 0.0 | 0.0 | 0.00 | 0.25 | 0.04 | 44 | 1008.5 |
| 20260506003203 | 50 | 0 | 0.0 | 0.0 | 0.00 | 0.25 | 0.04 | 43 | 1008.4 |
| 20260506003003 | 50 | 58 | 0.0 | 2.0 | 0.00 | 0.25 | 0.04 | 43 | 1008.4 |
| 20260506002803 | 50 | 58 | 0.0 | 2.0 | 0.00 | 0.25 | 0.04 | 43 | 1008.4 |
| 20260506002603 | 50 | 58 | 0.0 | 2.0 | 0.00 | 0.25 | 0.04 | 43 | 1008.5 |
| 20260506002403 | 50 | 58 | 0.0 | 2.0 | 0.00 | 0.25 | 0.04 | 43 | 1008.5 |
| 20260506002224 | 50 | 58 | 0.0 | 2.0 | 0.00 | 0.25 | 0.04 | 44 | 1008.7 |
| 20260506002003 | 50 | 57 | 0.0 | 2.0 | 0.00 | 0.25 | 0.04 | 42 | 1008.6 |
| 20260506001803 | 50 | 57 | 0.0 | 2.0 | 0.00 | 0.25 | 0.04 | 42 | 1008.6 |
| 20260506001624 | 50 | 57 | 0.0 | 2.0 | 0.00 | 0.25 | 0.04 | 42 | 1008.6 |
| 20260506001403 | 50 | 57 | 0.0 | 2.0 | 0.00 | 0.25 | 0.04 | 43 | 1008.6 |
| 20260506001203 | 50 | 0 | 0.0 | 0.0 | 0.00 | 0.25 | 0.04 | 44 | 1008.6 |
| 20260506001003 | 50 | 0 | 0.0 | 0.0 | 0.00 | 0.25 | 0.04 | 46 | 1008.6 |
| 20260506000824 | 50 | 0 | 0.0 | 0.0 | 0.00 | 0.25 | 0.04 | 46 | 1008.6 |
| 20260506000603 | 50 | 0 | 0.0 | 0.0 | 0.00 | 0.25 | 0.04 | 48 | 1008.6 |
| 20260506000403 | 50 | 0 | 0.0 | 0.0 | 0.00 | 0.25 | 0.04 | 51 | 1008.6 |
| 20260506000204 | 50 | 0 | 0.0 | 0.0 | 0.00 | 0.25 | 0.04 | 50 | 1008.7 |
| 20260506000024 | 50 | 0 | 0.0 | 0.0 | 0.00 | 0.25 | 0.04 | 50 | 1008.7 |
| 20260505235803 | 50 | 0 | 0.0 | 0.0 | 0.00 | 0.25 | 0.04 | 50 | 1008.8 |
| 20260505235603 | 50 | 0 | 0.0 | 0.0 | 0.00 | 0.25 | 0.04 | 49 | 1008.8 |
| 20260505235403 | 50 | 0 | 0.0 | 0.0 | 0.00 | 0.25 | 0.04 | 49 | 1008.7 |
| 20260505235203 | 50 | 0 | 0.0 | 0.0 | 0.00 | 0.25 | 0.04 | 49 | 1008.7 |
| 20260505235024 | 50 | 0 | 0.0 | 0.0 | 0.00 | 0.25 | 0.04 | 48 | 1008.7 |
| 20260505234803 | 50 | 0 | 0.0 | 0.0 | 0.00 | 0.25 | 0.04 | 46 | 1008.7 |
| 20260505234603 | 50 | 0 | 0.0 | 0.0 | 0.00 | 0.25 | 0.04 | 47 | 1008.6 |
| 20260505234403 | 50 | 0 | 0.0 | 0.0 | 0.00 | 0.25 | 0.04 | 48 | 1008.6 |
| 20260505234203 | 50 | 0 | 0.0 | 0.0 | 0.00 | 0.25 | 0.04 | 44 | 1008.6 |
| 20260505234024 | 50 | 0 | 0.0 | 0.0 | 0.00 | 0.25 | 0.04 | 47 | 1008.5 |
| 20260505233803 | 50 | 0 | 0.0 | 0.0 | 0.00 | 0.25 | 0.04 | 47 | 1008.6 |
| 20260505233624 | 50 | 0 | 0.0 | 0.0 | 0.00 | 0.25 | 0.04 | 48 | 1008.6 |
| 20260505233403 | 49 | 0 | 0.0 | 0.0 | 0.00 | 0.25 | 0.04 | 47 | 1008.6 |
| 20260505233203 | 49 | 0 | 0.0 | 0.0 | 0.00 | 0.25 | 0.04 | 49 | 1008.6 |
| 20260505233003 | 49 | 39 | 0.0 | 1.0 | 0.00 | 0.25 | 0.04 | 49 | 1008.6 |
| 20260505232803 | 50 | 39 | 0.0 | 2.0 | 0.00 | 0.25 | 0.04 | 49 | 1008.6 |
| 20260505232603 | 50 | 39 | 0.0 | 2.0 | 0.00 | 0.25 | 0.04 | 49 | 1008.6 |
| 20260505232403 | 50 | 39 | 0.0 | 2.0 | 0.00 | 0.25 | 0.04 | 48 | 1008.7 |
| 20260505232203 | 50 | 39 | 0.0 | 2.0 | 0.00 | 0.25 | 0.04 | 48 | 1008.7 |
| 20260505232003 | 50 | 39 | 1.0 | 2.0 | 0.00 | 0.25 | 0.04 | 49 | 1008.7 |
| 20260505231803 | 50 | 40 | 1.0 | 3.0 | 0.00 | 0.25 | 0.04 | 48 | 1008.7 |
| 20260505231424 | 50 | 40 | 1.0 | 3.0 | 0.00 | 0.25 | 0.04 | 49 | 1008.7 |
| 20260505231203 | 50 | 34 | 1.0 | 3.0 | 0.00 | 0.25 | 0.04 | 47 | 1008.7 |
| 20260505231003 | 50 | 29 | 1.0 | 3.0 | 0.00 | 0.25 | 0.04 | 46 | 1008.7 |
| 20260505230824 | 50 | 32 | 1.0 | 3.0 | 0.00 | 0.25 | 0.04 | 48 | 1008.7 |
| 20260505230603 | 50 | 31 | 2.0 | 4.0 | 0.00 | 0.25 | 0.04 | 47 | 1008.7 |
| 20260505230403 | 50 | 34 | 2.0 | 4.0 | 0.00 | 0.25 | 0.04 | 47 | 1008.6 |
| 20260505230203 | 50 | 35 | 2.0 | 5.0 | 0.00 | 0.25 | 0.04 | 47 | 1008.7 |
| 20260505230003 | 50 | 37 | 2.0 | 5.0 | 0.00 | 0.25 | 0.04 | 46 | 1008.7 |
| 20260505225803 | 50 | 43 | 2.0 | 5.0 | 0.00 | 0.25 | 0.04 | 46 | 1008.8 |
| 20260505225603 | 50 | 41 | 2.0 | 5.0 | 0.00 | 0.25 | 0.04 | 44 | 1008.8 |
| 20260505225403 | 50 | 39 | 2.0 | 5.0 | 0.00 | 0.25 | 0.04 | 43 | 1008.7 |
| 20260505225224 | 50 | 40 | 2.0 | 5.0 | 0.00 | 0.25 | 0.04 | 47 | 1008.6 |
| 20260505225003 | 50 | 44 | 2.0 | 5.0 | 0.00 | 0.25 | 0.04 | 44 | 1008.6 |
| 20260505224803 | 50 | 39 | 2.0 | 5.0 | 0.00 | 0.25 | 0.04 | 46 | 1008.7 |
| 20260505224603 | 50 | 36 | 2.0 | 5.0 | 0.00 | 0.25 | 0.04 | 47 | 1008.6 |
| 20260505224403 | 50 | 35 | 2.0 | 5.0 | 0.00 | 0.25 | 0.04 | 47 | 1008.7 |
| 20260505224203 | 50 | 32 | 3.0 | 5.0 | 0.00 | 0.25 | 0.04 | 45 | 1008.6 |
| 20260505224003 | 50 | 28 | 3.0 | 5.0 | 0.00 | 0.25 | 0.04 | 42 | 1008.6 |
| 20260505223803 | 50 | 25 | 3.0 | 6.0 | 0.00 | 0.25 | 0.04 | 44 | 1008.6 |
| 20260505223603 | 50 | 27 | 3.0 | 6.0 | 0.00 | 0.25 | 0.04 | 43 | 1008.7 |
| 20260505223403 | 50 | 22 | 3.0 | 9.0 | 0.00 | 0.25 | 0.04 | 44 | 1008.7 |
| 20260505223203 | 51 | 25 | 3.0 | 9.0 | 0.00 | 0.25 | 0.04 | 43 | 1008.7 |
| 20260505223003 | 51 | 32 | 3.0 | 9.0 | 0.00 | 0.25 | 0.04 | 41 | 1008.7 |
| 20260505222803 | 51 | 33 | 3.0 | 9.0 | 0.00 | 0.25 | 0.04 | 42 | 1008.7 |
| 20260505222603 | 51 | 41 | 2.0 | 9.0 | 0.00 | 0.25 | 0.04 | 41 | 1008.6 |
| 20260505222424 | 51 | 47 | 3.0 | 7.0 | 0.00 | 0.25 | 0.04 | 44 | 1008.6 |
| 20260505222203 | 51 | 49 | 3.0 | 7.0 | 0.00 | 0.25 | 0.04 | 41 | 1008.6 |
| 20260505222003 | 51 | 53 | 4.0 | 7.0 | 0.00 | 0.25 | 0.04 | 42 | 1008.6 |
| 20260505221803 | 51 | 56 | 4.0 | 7.0 | 0.00 | 0.25 | 0.04 | 41 | 1008.6 |
| 20260505221603 | 51 | 66 | 4.0 | 7.0 | 0.00 | 0.25 | 0.04 | 39 | 1008.6 |
| 20260505221403 | 51 | 75 | 4.0 | 8.0 | 0.00 | 0.28 | 0.04 | 40 | 1008.6 |
| 20260505221203 | 51 | 82 | 4.0 | 8.0 | 0.00 | 0.33 | 0.04 | 40 | 1008.6 |
| 20260505221003 | 51 | 82 | 3.0 | 8.0 | 0.00 | 0.37 | 0.04 | 40 | 1008.6 |
| 20260505220803 | 51 | 82 | 3.0 | 8.0 | 0.00 | 0.37 | 0.04 | 39 | 1008.6 |
| 20260505220624 | 51 | 68 | 3.0 | 8.0 | 0.00 | 0.37 | 0.04 | 41 | 1008.5 |
| 20260505220403 | 51 | 52 | 3.0 | 7.0 | 0.00 | 0.37 | 0.04 | 42 | 1008.6 |
| 20260505220203 | 51 | 37 | 3.0 | 7.0 | 0.00 | 0.37 | 0.04 | 43 | 1008.6 |
| 20260505220003 | 51 | 23 | 3.0 | 7.0 | 0.00 | 0.37 | 0.04 | 44 | 1008.6 |
| 20260505215824 | 51 | 19 | 3.0 | 7.0 | 0.00 | 0.37 | 0.04 | 45 | 1008.6 |
| 20260505215624 | 51 | 16 | 3.0 | 7.0 | 0.00 | 0.37 | 0.04 | 41 | 1008.6 |
| 20260505215403 | 51 | 17 | 3.0 | 7.0 | 0.00 | 0.37 | 0.04 | 42 | 1008.6 |
| 20260505215224 | 51 | 21 | 3.0 | 7.0 | 0.00 | 0.37 | 0.04 | 43 | 1008.6 |
| 20260505215003 | 51 | 24 | 3.0 | 7.0 | 0.00 | 0.37 | 0.04 | 38 | 1008.6 |
| 20260505214803 | 51 | 23 | 3.0 | 7.0 | 0.00 | 0.37 | 0.04 | 43 | 1008.6 |
| 20260505214603 | 51 | 32 | 3.0 | 7.0 | 0.00 | 0.37 | 0.04 | 39 | 1008.7 |
| 20260505214403 | 51 | 37 | 3.0 | 7.0 | 0.00 | 0.37 | 0.04 | 42 | 1008.7 |
| 20260505214224 | 51 | 37 | 3.0 | 7.0 | 0.00 | 0.37 | 0.04 | 40 | 1008.7 |
| 20260505214003 | 51 | 40 | 3.0 | 7.0 | 0.00 | 0.37 | 0.04 | 41 | 1008.6 |
| 20260505213824 | 51 | 38 | 3.0 | 7.0 | 0.00 | 0.37 | 0.04 | 42 | 1008.6 |
| 20260505213603 | 51 | 30 | 3.0 | 6.0 | 0.00 | 0.37 | 0.04 | 41 | 1008.6 |
| 20260505213403 | 51 | 18 | 3.0 | 6.0 | 0.00 | 0.37 | 0.04 | 43 | 1008.6 |
| 20260505213203 | 51 | 12 | 4.0 | 6.0 | 0.00 | 0.37 | 0.04 | 43 | 1008.6 |
| 20260505213003 | 51 | 10 | 4.0 | 6.0 | 0.00 | 0.37 | 0.04 | 44 | 1008.6 |
| 20260505212803 | 51 | 12 | 4.0 | 8.0 | 0.00 | 0.37 | 0.04 | 42 | 1008.6 |
| 20260505212603 | 51 | 9 | 4.0 | 8.0 | 0.00 | 0.37 | 0.04 | 41 | 1008.6 |
| 20260505212403 | 51 | 13 | 4.0 | 8.0 | 0.00 | 0.37 | 0.04 | 38 | 1008.6 |
| 20260505212203 | 51 | 18 | 4.0 | 8.0 | 0.00 | 0.37 | 0.04 | 39 | 1008.6 |
| 20260505212003 | 51 | 23 | 4.0 | 8.0 | 0.00 | 0.37 | 0.04 | 39 | 1008.5 |
| 20260505211803 | 51 | 28 | 3.0 | 8.0 | 0.00 | 0.37 | 0.04 | 39 | 1008.5 |
| 20260505211603 | 51 | 36 | 3.0 | 6.0 | 0.00 | 0.37 | 0.04 | 41 | 1008.4 |
| 20260505211403 | 51 | 36 | 3.0 | 5.0 | 0.00 | 0.37 | 0.04 | 42 | 1008.4 |
| 20260505211224 | 51 | 34 | 3.0 | 6.0 | 0.00 | 0.37 | 0.04 | 44 | 1008.4 |
| 20260505211003 | 51 | 40 | 4.0 | 12.0 | 0.00 | 0.37 | 0.04 | 38 | 1008.4 |
| 20260505210803 | 51 | 52 | 4.0 | 12.0 | 0.00 | 0.37 | 0.04 | 39 | 1008.4 |
| 20260505210603 | 51 | 51 | 4.0 | 12.0 | 0.00 | 0.37 | 0.04 | 39 | 1008.4 |
| 20260505210403 | 51 | 47 | 5.0 | 12.0 | 0.00 | 0.37 | 0.04 | 38 | 1008.4 |
| 20260505210203 | 51 | 42 | 5.0 | 12.0 | 0.00 | 0.37 | 0.04 | 36 | 1008.4 |
| 20260505210003 | 51 | 29 | 5.0 | 11.0 | 0.00 | 0.37 | 0.04 | 34 | 1008.4 |
| 20260505205803 | 51 | 11 | 4.0 | 9.0 | 0.00 | 0.37 | 0.04 | 38 | 1008.5 |
| 20260505205603 | 51 | 11 | 5.0 | 10.0 | 0.00 | 0.37 | 0.04 | 43 | 1008.5 |
| 20260505205403 | 51 | 12 | 5.0 | 10.0 | 0.00 | 0.37 | 0.04 | 42 | 1008.5 |
| 20260505205203 | 51 | 13 | 5.0 | 10.0 | 0.00 | 0.37 | 0.04 | 40 | 1008.5 |
| 20260505205003 | 51 | 20 | 5.0 | 10.0 | 0.00 | 0.37 | 0.04 | 40 | 1008.5 |
| 20260505204803 | 51 | 27 | 5.0 | 10.0 | 0.00 | 0.37 | 0.04 | 39 | 1008.5 |
| 20260505204624 | 51 | 35 | 5.0 | 12.0 | 0.00 | 0.37 | 0.04 | 43 | 1008.6 |
| 20260505204403 | 52 | 40 | 5.0 | 12.0 | 0.00 | 0.37 | 0.04 | 41 | 1008.6 |
| 20260505204203 | 52 | 43 | 5.0 | 12.0 | 0.00 | 0.37 | 0.04 | 39 | 1008.6 |
| 20260505204003 | 52 | 36 | 5.0 | 12.0 | 0.00 | 0.37 | 0.04 | 41 | 1008.6 |
| 20260505203803 | 52 | 36 | 5.0 | 12.0 | 0.00 | 0.37 | 0.04 | 38 | 1008.6 |
| 20260505203624 | 52 | 40 | 5.0 | 12.0 | 0.00 | 0.37 | 0.04 | 39 | 1008.5 |
| 20260505203403 | 52 | 45 | 5.0 | 12.0 | 0.00 | 0.37 | 0.04 | 42 | 1008.5 |
| 20260505203203 | 52 | 48 | 5.0 | 12.0 | 0.00 | 0.37 | 0.04 | 40 | 1008.6 |
| 20260505203003 | 52 | 48 | 5.0 | 12.0 | 0.00 | 0.37 | 0.04 | 40 | 1008.6 |
| 20260505202803 | 52 | 49 | 5.0 | 12.0 | 0.00 | 0.37 | 0.04 | 41 | 1008.6 |
| 20260505202603 | 52 | 38 | 4.0 | 9.0 | 0.00 | 0.37 | 0.04 | 40 | 1008.6 |
| 20260505202424 | 52 | 39 | 4.0 | 9.0 | 0.00 | 0.37 | 0.04 | 40 | 1008.6 |
| 20260505202203 | 52 | 37 | 4.0 | 9.0 | 0.00 | 0.37 | 0.04 | 39 | 1008.7 |
| 20260505202003 | 53 | 34 | 4.0 | 9.0 | 0.00 | 0.37 | 0.04 | 45 | 1008.7 |
| 20260505201803 | 53 | 20 | 4.0 | 9.0 | 0.00 | 0.37 | 0.04 | 41 | 1008.8 |
| 20260505201603 | 53 | 13 | 4.0 | 9.0 | 0.00 | 0.37 | 0.04 | 41 | 1008.9 |
| 20260505201424 | 53 | 5 | 4.0 | 8.0 | 0.00 | 0.37 | 0.04 | 43 | 1008.8 |
| 20260505201203 | 53 | 1 | 4.0 | 9.0 | 0.00 | 0.37 | 0.04 | 38 | 1008.9 |
| 20260505201024 | 53 | 360 | 4.0 | 9.0 | 0.00 | 0.37 | 0.04 | 38 | 1008.8 |
| 20260505200803 | 53 | 3 | 4.0 | 9.0 | 0.00 | 0.37 | 0.04 | 38 | 1008.8 |
| 20260505200603 | 53 | 359 | 4.0 | 9.0 | 0.00 | 0.37 | 0.04 | 38 | 1008.8 |
| 20260505200403 | 53 | 357 | 4.0 | 9.0 | 0.00 | 0.37 | 0.04 | 39 | 1008.7 |
| 20260505200004 | 52 | 351 | 4.0 | 9.0 | 0.00 | 0.37 | 0.04 | 38 | 1008.7 |
| 20260505195803 | 52 | 350 | 4.0 | 9.0 | 0.00 | 0.37 | 0.04 | 40 | 1008.6 |
| 20260505195603 | 52 | 352 | 5.0 | 9.0 | 0.00 | 0.37 | 0.04 | 38 | 1008.7 |
| 20260505195403 | 52 | 356 | 5.0 | 10.0 | 0.00 | 0.37 | 0.04 | 39 | 1008.7 |
| 20260505195224 | 52 | 357 | 5.0 | 10.0 | 0.00 | 0.37 | 0.04 | 39 | 1008.7 |
| 20260505195003 | 52 | 6 | 5.0 | 10.0 | 0.00 | 0.37 | 0.04 | 40 | 1008.6 |
| 20260505194803 | 52 | 11 | 5.0 | 10.0 | 0.00 | 0.37 | 0.04 | 39 | 1008.6 |
| 20260505194603 | 52 | 11 | 5.0 | 10.0 | 0.00 | 0.37 | 0.04 | 41 | 1008.6 |
| 20260505194403 | 53 | 13 | 5.0 | 8.0 | 0.00 | 0.37 | 0.04 | 44 | 1008.7 |
| 20260505194203 | 53 | 13 | 5.0 | 8.0 | 0.00 | 0.37 | 0.04 | 44 | 1008.7 |
| 20260505194003 | 53 | 7 | 5.0 | 8.0 | 0.00 | 0.37 | 0.04 | 43 | 1008.8 |
| 20260505193803 | 53 | 4 | 5.0 | 9.0 | 0.00 | 0.37 | 0.04 | 42 | 1008.7 |
| 20260505193624 | 53 | 5 | 5.0 | 9.0 | 0.00 | 0.37 | 0.04 | 45 | 1008.8 |
| 20260505193403 | 53 | 6 | 5.0 | 9.0 | 0.00 | 0.37 | 0.04 | 43 | 1008.7 |
| 20260505193203 | 53 | 2 | 5.0 | 9.0 | 0.00 | 0.37 | 0.04 | 42 | 1008.8 |
| 20260505193003 | 53 | 357 | 5.0 | 10.0 | 0.00 | 0.37 | 0.04 | 41 | 1008.7 |
| 20260505192803 | 53 | 356 | 5.0 | 10.0 | 0.00 | 0.37 | 0.04 | 44 | 1008.7 |
| 20260505192603 | 54 | 353 | 5.0 | 10.0 | 0.00 | 0.37 | 0.04 | 43 | 1008.7 |
| 20260505192403 | 53 | 353 | 5.0 | 10.0 | 0.00 | 0.37 | 0.04 | 43 | 1008.6 |
| 20260505192203 | 53 | 356 | 5.0 | 10.0 | 0.00 | 0.37 | 0.04 | 41 | 1008.6 |
| 20260505192003 | 53 | 356 | 5.0 | 10.0 | 0.00 | 0.37 | 0.04 | 42 | 1008.6 |
| 20260505191824 | 53 | 353 | 4.0 | 10.0 | 0.00 | 0.37 | 0.04 | 42 | 1008.5 |
| 20260505191624 | 53 | 349 | 4.0 | 8.0 | 0.00 | 0.37 | 0.04 | 45 | 1008.5 |
| 20260505191403 | 53 | 349 | 4.0 | 9.0 | 0.00 | 0.37 | 0.04 | 43 | 1008.6 |
| 20260505191203 | 53 | 354 | 5.0 | 9.0 | 0.00 | 0.37 | 0.04 | 41 | 1008.6 |
| 20260505191003 | 53 | 1 | 4.0 | 9.0 | 0.00 | 0.37 | 0.04 | 43 | 1008.6 |
| 20260505190803 | 52 | 5 | 4.0 | 9.0 | 0.00 | 0.37 | 0.04 | 42 | 1008.6 |
| 20260505190603 | 53 | 6 | 4.0 | 9.0 | 0.00 | 0.37 | 0.04 | 43 | 1008.6 |
| 20260505190403 | 53 | 10 | 4.0 | 8.0 | 0.00 | 0.37 | 0.04 | 45 | 1008.6 |
| 20260505190224 | 53 | 11 | 4.0 | 7.0 | 0.00 | 0.37 | 0.04 | 45 | 1008.6 |
| 20260505190003 | 53 | 9 | 4.0 | 7.0 | 0.00 | 0.37 | 0.04 | 46 | 1008.6 |
| 20260505185803 | 52 | 5 | 4.0 | 7.0 | 0.00 | 0.37 | 0.04 | 45 | 1008.6 |
| 20260505185603 | 52 | 356 | 4.0 | 8.0 | 0.00 | 0.37 | 0.04 | 46 | 1008.6 |
| 20260505185403 | 52 | 356 | 4.0 | 8.0 | 0.00 | 0.37 | 0.04 | 42 | 1008.6 |
| 20260505185224 | 52 | 352 | 4.0 | 9.0 | 0.00 | 0.37 | 0.04 | 42 | 1008.6 |
| 20260505185024 | 53 | 347 | 4.0 | 9.0 | 0.00 | 0.37 | 0.04 | 43 | 1008.6 |
| 20260505184803 | 53 | 351 | 4.0 | 9.0 | 0.00 | 0.37 | 0.04 | 44 | 1008.6 |
| 20260505184624 | 53 | 356 | 4.0 | 9.0 | 0.00 | 0.37 | 0.04 | 46 | 1008.6 |
| 20260505184403 | 53 | 355 | 4.0 | 9.0 | 0.00 | 0.37 | 0.04 | 46 | 1008.6 |
| 20260505184203 | 52 | 358 | 4.0 | 7.0 | 0.00 | 0.37 | 0.04 | 43 | 1008.7 |
| 20260505184003 | 53 | 359 | 4.0 | 7.0 | 0.00 | 0.37 | 0.04 | 47 | 1008.7 |
| 20260505183824 | 53 | 357 | 4.0 | 7.0 | 0.00 | 0.37 | 0.04 | 45 | 1008.7 |
| 20260505183603 | 53 | 349 | 4.0 | 7.0 | 0.00 | 0.37 | 0.04 | 46 | 1008.6 |
| 20260505183403 | 53 | 337 | 4.0 | 7.0 | 0.00 | 0.37 | 0.04 | 45 | 1008.7 |
| 20260505183203 | 53 | 329 | 4.0 | 8.0 | 0.00 | 0.37 | 0.04 | 45 | 1008.6 |
| 20260505183003 | 53 | 328 | 4.0 | 8.0 | 0.00 | 0.37 | 0.04 | 45 | 1008.6 |
| 20260505182803 | 53 | 328 | 4.0 | 8.0 | 0.00 | 0.37 | 0.04 | 47 | 1008.5 |
| 20260505182603 | 53 | 336 | 4.0 | 8.0 | 0.00 | 0.37 | 0.04 | 45 | 1008.6 |
| 20260505182403 | 53 | 341 | 5.0 | 8.0 | 0.00 | 0.37 | 0.04 | 43 | 1008.6 |
| 20260505182203 | 53 | 349 | 4.0 | 8.0 | 0.00 | 0.37 | 0.04 | 44 | 1008.5 |
| 20260505182003 | 53 | 355 | 5.0 | 8.0 | 0.00 | 0.37 | 0.04 | 45 | 1008.6 |
| 20260505181803 | 53 | 13 | 5.0 | 9.0 | 0.00 | 0.37 | 0.04 | 47 | 1008.6 |
| 20260505181624 | 53 | 23 | 5.0 | 9.0 | 0.00 | 0.37 | 0.04 | 45 | 1008.6 |
| 20260505181403 | 53 | 43 | 5.0 | 9.0 | 0.00 | 0.37 | 0.04 | 46 | 1008.7 |
| 20260505181203 | 53 | 58 | 5.0 | 11.0 | 0.00 | 0.37 | 0.04 | 48 | 1008.6 |
| 20260505181003 | 53 | 69 | 5.0 | 11.0 | 0.00 | 0.37 | 0.04 | 49 | 1008.5 |
| 20260505180803 | 53 | 66 | 5.0 | 11.0 | 0.00 | 0.37 | 0.04 | 48 | 1008.5 |
| 20260505180624 | 53 | 64 | 5.0 | 11.0 | 0.00 | 0.37 | 0.04 | 50 | 1008.5 |
| 20260505180403 | 53 | 60 | 5.0 | 11.0 | 0.00 | 0.37 | 0.04 | 49 | 1008.5 |
| 20260505180203 | 53 | 49 | 4.0 | 10.0 | 0.00 | 0.37 | 0.04 | 50 | 1008.6 |
| 20260505180003 | 53 | 34 | 4.0 | 8.0 | 0.00 | 0.37 | 0.04 | 46 | 1008.6 |
| 20260505175803 | 53 | 30 | 4.0 | 8.0 | 0.00 | 0.37 | 0.04 | 48 | 1008.6 |
| 20260505175603 | 53 | 41 | 4.0 | 9.0 | 0.00 | 0.37 | 0.04 | 49 | 1008.6 |
| 20260505175403 | 53 | 33 | 4.0 | 10.0 | 0.00 | 0.37 | 0.04 | 48 | 1008.5 |
| 20260505175203 | 53 | 21 | 5.0 | 10.0 | 0.00 | 0.37 | 0.04 | 51 | 1008.4 |
| 20260505175003 | 52 | 17 | 5.0 | 10.0 | 0.00 | 0.37 | 0.04 | 48 | 1008.4 |
| 20260505174803 | 53 | 7 | 5.0 | 10.0 | 0.00 | 0.37 | 0.04 | 51 | 1008.2 |
| 20260505174624 | 52 | 2 | 5.0 | 10.0 | 0.00 | 0.37 | 0.04 | 48 | 1008.1 |
| 20260505174403 | 52 | 3 | 5.0 | 10.0 | 0.00 | 0.37 | 0.04 | 45 | 1008.1 |
| 20260505174203 | 52 | 5 | 5.0 | 10.0 | 0.00 | 0.37 | 0.04 | 45 | 1008.2 |
| 20260505174003 | 53 | 8 | 6.0 | 10.0 | 0.00 | 0.37 | 0.04 | 50 | 1008.4 |
| 20260505173803 | 53 | 9 | 6.0 | 10.0 | 0.00 | 0.37 | 0.04 | 49 | 1008.4 |
| 20260505173603 | 53 | 4 | 6.0 | 10.0 | 0.00 | 0.37 | 0.04 | 46 | 1008.3 |
| 20260505173403 | 53 | 4 | 6.0 | 10.0 | 0.00 | 0.37 | 0.04 | 47 | 1008.4 |
| 20260505173203 | 53 | 3 | 6.0 | 10.0 | 0.00 | 0.37 | 0.04 | 47 | 1008.3 |
| 20260505173003 | 53 | 358 | 5.0 | 10.0 | 0.00 | 0.37 | 0.04 | 45 | 1008.3 |
| 20260505172803 | 53 | 356 | 5.0 | 10.0 | 0.00 | 0.37 | 0.04 | 50 | 1008.2 |
| 20260505172603 | 52 | 357 | 5.0 | 10.0 | 0.00 | 0.37 | 0.04 | 48 | 1008.3 |
| 20260505172403 | 52 | 355 | 5.0 | 10.0 | 0.00 | 0.37 | 0.04 | 49 | 1008.2 |
| 20260505172203 | 52 | 356 | 5.0 | 10.0 | 0.00 | 0.37 | 0.04 | 51 | 1008.3 |
| 20260505172003 | 52 | 2 | 5.0 | 9.0 | 0.00 | 0.37 | 0.04 | 49 | 1008.2 |
| 20260505171803 | 52 | 15 | 5.0 | 9.0 | 0.00 | 0.37 | 0.04 | 52 | 1008.2 |
| 20260505171603 | 52 | 26 | 4.0 | 9.0 | 0.00 | 0.37 | 0.04 | 47 | 1008.2 |
| 20260505171403 | 52 | 29 | 4.0 | 9.0 | 0.00 | 0.37 | 0.04 | 49 | 1008.1 |
| 20260505171203 | 52 | 34 | 4.0 | 8.0 | 0.00 | 0.37 | 0.04 | 51 | 1008.1 |
| 20260505171003 | 52 | 39 | 4.0 | 9.0 | 0.00 | 0.37 | 0.04 | 51 | 1008.1 |
| 20260505170803 | 52 | 29 | 4.0 | 10.0 | 0.00 | 0.37 | 0.04 | 51 | 1008.1 |
| 20260505170624 | 52 | 20 | 5.0 | 10.0 | 0.00 | 0.37 | 0.04 | 53 | 1008.1 |
| 20260505170403 | 52 | 14 | 5.0 | 10.0 | 0.00 | 0.37 | 0.04 | 50 | 1007.9 |
| 20260505170224 | 52 | 9 | 5.0 | 10.0 | 0.00 | 0.37 | 0.04 | 51 | 1007.9 |
| 20260505170004 | 52 | 2 | 5.0 | 10.0 | 0.00 | 0.37 | 0.04 | 50 | 1007.8 |
| 20260505165803 | 52 | 356 | 5.0 | 10.0 | 0.00 | 0.37 | 0.04 | 50 | 1007.9 |
| 20260505165603 | 52 | 354 | 5.0 | 10.0 | 0.00 | 0.37 | 0.04 | 52 | 1007.8 |
| 20260505165424 | 52 | 6 | 5.0 | 11.0 | 0.00 | 0.37 | 0.04 | 51 | 1007.8 |
| 20260505165203 | 52 | 15 | 5.0 | 11.0 | 0.00 | 0.37 | 0.04 | 54 | 1007.8 |
| 20260505165003 | 52 | 23 | 5.0 | 11.0 | 0.00 | 0.37 | 0.04 | 51 | 1007.8 |
| 20260505164803 | 52 | 40 | 5.0 | 11.0 | 0.00 | 0.37 | 0.04 | 54 | 1007.8 |
| 20260505164603 | 51 | 45 | 5.0 | 11.0 | 0.00 | 0.37 | 0.04 | 55 | 1007.8 |
| 20260505164403 | 51 | 26 | 4.0 | 11.0 | 0.00 | 0.37 | 0.04 | 55 | 1007.6 |
| 20260505164203 | 51 | 44 | 4.0 | 10.0 | 0.00 | 0.37 | 0.04 | 56 | 1007.6 |
| 20260505164003 | 51 | 48 | 4.0 | 10.0 | 0.00 | 0.37 | 0.04 | 56 | 1007.6 |
| 20260505163803 | 50 | 52 | 4.0 | 10.0 | 0.00 | 0.37 | 0.04 | 56 | 1007.6 |
| 20260505163624 | 50 | 47 | 4.0 | 10.0 | 0.00 | 0.37 | 0.04 | 55 | 1007.6 |
| 20260505163403 | 50 | 64 | 4.0 | 8.0 | 0.00 | 0.37 | 0.04 | 57 | 1007.6 |
| 20260505163203 | 50 | 47 | 4.0 | 10.0 | 0.00 | 0.37 | 0.04 | 55 | 1007.5 |
| 20260505163003 | 50 | 34 | 5.0 | 10.0 | 0.00 | 0.37 | 0.04 | 56 | 1007.5 |
| 20260505162824 | 50 | 27 | 5.0 | 10.0 | 0.00 | 0.37 | 0.04 | 56 | 1007.5 |
| 20260505162603 | 50 | 28 | 5.0 | 10.0 | 0.00 | 0.37 | 0.04 | 58 | 1007.7 |
| 20260505162403 | 50 | 21 | 4.0 | 10.0 | 0.00 | 0.37 | 0.04 | 59 | 1007.7 |
| 20260505162203 | 49 | 24 | 4.0 | 8.0 | 0.00 | 0.37 | 0.04 | 58 | 1007.7 |
| 20260505162024 | 49 | 26 | 4.0 | 8.0 | 0.00 | 0.37 | 0.04 | 60 | 1007.7 |
| 20260505161803 | 49 | 23 | 4.0 | 8.0 | 0.00 | 0.37 | 0.04 | 59 | 1007.7 |
| 20260505161603 | 48 | 33 | 5.0 | 8.0 | 0.00 | 0.37 | 0.04 | 59 | 1007.9 |
| 20260505161403 | 48 | 28 | 5.0 | 9.0 | 0.00 | 0.37 | 0.04 | 61 | 1008.0 |
| 20260505161203 | 48 | 24 | 5.0 | 9.0 | 0.00 | 0.37 | 0.04 | 61 | 1008.1 |
| 20260505161003 | 48 | 13 | 5.0 | 9.0 | 0.00 | 0.37 | 0.04 | 60 | 1008.1 |
| 20260505160803 | 48 | 360 | 5.0 | 9.0 | 0.00 | 0.37 | 0.04 | 61 | 1008.2 |
| 20260505160603 | 48 | 346 | 4.0 | 9.0 | 0.00 | 0.37 | 0.04 | 59 | 1008.2 |
| 20260505160403 | 48 | 342 | 3.0 | 7.0 | 0.00 | 0.37 | 0.04 | 61 | 1008.2 |
| 20260505160203 | 47 | 330 | 3.0 | 7.0 | 0.00 | 0.37 | 0.04 | 61 | 1008.1 |
| 20260505153203 | 46 | 359 | 3.0 | 6.0 | 0.03 | 0.37 | 0.04 | 65 | 1008.4 |
| 20260505153003 | 46 | 360 | 4.0 | 7.0 | 0.03 | 0.37 | 0.04 | 64 | 1008.3 |
| 20260505152803 | 46 | 358 | 4.0 | 8.0 | 0.03 | 0.37 | 0.04 | 64 | 1008.4 |
| 20260505152603 | 46 | 1 | 4.0 | 8.0 | 0.03 | 0.37 | 0.04 | 63 | 1008.5 |
| 20260505152403 | 46 | 2 | 4.0 | 8.0 | 0.03 | 0.37 | 0.04 | 64 | 1008.5 |
| 20260505152203 | 46 | 9 | 5.0 | 8.0 | 0.03 | 0.37 | 0.04 | 64 | 1008.4 |
| 20260505152003 | 46 | 22 | 5.0 | 8.0 | 0.03 | 0.37 | 0.04 | 65 | 1008.4 |
| 20260505151824 | 46 | 24 | 5.0 | 11.0 | 0.03 | 0.37 | 0.04 | 65 | 1008.5 |
| 20260505151624 | 46 | 21 | 5.0 | 11.0 | 0.03 | 0.37 | 0.04 | 65 | 1008.6 |
| 20260505151403 | 46 | 22 | 5.0 | 11.0 | 0.03 | 0.37 | 0.04 | 65 | 1008.7 |
| 20260505151203 | 46 | 16 | 4.0 | 11.0 | 0.04 | 0.37 | 0.04 | 65 | 1008.7 |
| 20260505151003 | 46 | 7 | 4.0 | 11.0 | 0.04 | 0.37 | 0.04 | 65 | 1008.7 |
| 20260505150803 | 46 | 4 | 4.0 | 9.0 | 0.04 | 0.37 | 0.04 | 66 | 1008.7 |
| 20260505150603 | 46 | 358 | 4.0 | 9.0 | 0.04 | 0.37 | 0.04 | 66 | 1008.7 |
| 20260505150403 | 46 | 352 | 3.0 | 9.0 | 0.04 | 0.37 | 0.04 | 66 | 1008.7 |
| 20260505150203 | 46 | 351 | 3.0 | 9.0 | 0.04 | 0.37 | 0.04 | 65 | 1008.6 |